Skip Page Navigation
NASA JPL Caltech
NASA Logo - Jet Propulsion Laboratory + View the NASA Portal
+ Center for Near-Earth Object Studies
JPL Home Earth Solar System Stars & Galaxies Technology
JPL Solar System Dynamics
BODIES ORBITS EPHEMERIDES TOOLS PHYSICAL DATA DISCOVERY FAQ SITE MAP
IMPORTANT: The SSD Announcement email list is now available. Major changes are coming in the near future, including possible hostname and/or URL changes. To be notified of such changes, subscribe to this email list.

Please visit this page for more details.


JPL Small-Body Database Browser
Search: [ help ]  
351039 (2003 SB170)
Classification: Main-belt Asteroid          SPK-ID: 2351039
Ephemeris | Orbit Diagram | Orbital Elements | Mission Design | Physical Parameters | Discovery Circumstances | Close-Approach Data ]

[ show orbit diagram ]
Orbital Elements at Epoch 2458600.5 (2019-Apr-27.0) TDB
Reference: JPL 8 (heliocentric ecliptic J2000)
 Element Value Uncertainty (1-sigma)   Units 
e .1256097812179003 9.9407e-08  
a 2.000329396132164 1.3736e-08 au
q 1.749068458320268 2.0652e-07 au
i 14.15211579793079 1.0775e-05 deg
node 287.4444777595502 2.804e-05 deg
peri 74.82774348387179 5.2805e-05 deg
M 182.7516384780923 4.9797e-05 deg
tp 2459109.280468890795
(2020-Sep-16.78046889)
0.00014665 TDB
period 1033.357754215672
2.83
1.0644e-05
2.914e-08
d
yr
n .3483788634975146 3.5884e-09 deg/d
Q 2.25159033394406 1.5461e-08 au
  Orbit Determination Parameters
   # obs. used (total)      176  
   data-arc span      5725 days (15.67 yr)  
   first obs. used      2003-07-28  
   last obs. used      2019-03-31  
   planetary ephem.      DE431  
   SB-pert. ephem.      SB431-N16  
   condition code      0  
   norm. resid. RMS      .54508  
   source      ORB  
   producer      Otto Matic  
   solution date      2019-Jul-13 12:18:50  

Additional Information
 Earth MOID = .797804 au 
 Jupiter MOID = 3.16948 au 
 T_jup = 3.794 
[ show covariance matrix ]

Ephemeris | Orbit Diagram | Orbital Elements | Mission Design | Physical Parameters | Discovery Circumstances | Close-Approach Data ]

Physical Parameter Table
Parameter Symbol Value Units Sigma Reference Notes
absolute magnitude H 17.2   n/a MPO254690  

351039 (2003 SB170)          Discovered 2003-Sep-22 by NEAT at Palomar
Reference: 20130127/Numbers.arcLast Updated: 2013-01-31

[ show close-approach data ]
Ephemeris | Orbit Diagram | Orbital Elements | Mission Design | Physical Parameters | Discovery Circumstances | Close-Approach Data ]
ABOUT SSD CREDITS/AWARDS PRIVACY/COPYRIGHT GLOSSARY LINKS
FirstGov
(server date/time)  
NASA Home Page
Site Manager:   Ryan S. Park
Webmaster  Alan B. Chamberlin